Stations météo

réclame
Mon MeteoGroup
Le Touquet, France (7003): Température de l'air & dewpoint: 29.07.2020 18:00:00 - 04.08.2020 18:00:00 (CEST)Le Touquet, France (7003): Température de l'air 5cm: 29.07.2020 18:00:00 - 04.08.2020 18:00:00 (CEST)Le Touquet, France (7003): Vitesse du vent & gusts: 29.07.2020 18:00:00 - 04.08.2020 18:00:00 (CEST)Le Touquet, France (7003): Direction du vent: 29.07.2020 18:00:00 - 04.08.2020 18:00:00 (CEST)Le Touquet, France (7003): reduced air pressure: 29.07.2020 18:00:00 - 04.08.2020 18:00:00 (CEST)Le Touquet, France (7003): visibility: 29.07.2020 18:00:00 - 04.08.2020 18:00:00 (CEST)Le Touquet, France (7003): Ensoleillement: 29.07.2020 18:00:00 - 04.08.2020 18:00:00 (CEST)Le Touquet, France (7003): Quantités de précipitations: 29.07.2020 18:00:00 - 04.08.2020 18:00:00 (CEST)
Date & Time tt [°C] td [°C] tt 5cm [°C] ff [km/h] ff [knt] fx [km/h] fx [knt] dd ppp [hPa] vv [km] sd [min] rr [mm]
04.08.2020 18:00:00 18,9 10,7 22,3 12 7 26 14 W 1017,6 46 41 0,0
04.08.2020 17:00:00 19,7 11,7 26,5 16 8 31 17 W 1018,1 11 60 0,0
04.08.2020 16:00:00 19,8 11,6 26,7 16 8 34 18 W 1018,1 11 60 0,0
04.08.2020 15:00:00 20,0 12,7 27,1 18 10 30 16 W 1018,4 16 57 0,0
04.08.2020 14:00:00 20,0 15,0 27,0 18 10 33 18 WSW 1018,6 19 57 0,0
04.08.2020 13:00:00 20,3 14,9 25,5 22 12 32 18 WSW 1018,3 19 60 0,0
04.08.2020 12:00:00 19,6 14,2 24,0 20 11 34 18 SW 1018,1 48 48 0,0
04.08.2020 11:00:00 19,9 11,4 23,3 14 8 27 15 S 1018,3 12 60 0,0
04.08.2020 10:00:00 18,2 12,4 17,2 14 7 21 11 SSE 1018,5 14 60 0,0
04.08.2020 09:00:00 14,4 12,1 12,8 9 5 13 7 ESE 1018,4 14 60 0,0
04.08.2020 08:00:00 11,7 10,6 8,7 8 5 11 6 SE 1018,0 14 60 0,0
04.08.2020 07:00:00 10,0 9,4 7,8 8 4 10 5 SE 1017,7 13 5 0,0
04.08.2020 06:00:00 10,1 9,2 6,6 8 5 11 6 SE 1017,7 16 0 0,0
04.08.2020 05:00:00 10,4 9,3 6,4 6 3 8 4 SSE 1017,3 17 0 0,0
04.08.2020 04:00:00 11,0 9,9 8,0 6 4 9 5 SE 1017,5 21 0 0,0
04.08.2020 03:00:00 11,6 10,0 7,8 6 4 8 5 SSE 1017,7 24 0 0,0
04.08.2020 02:00:00 12,2 10,4 7,8 6 3 9 5 SSE 1017,7 26 0 0,0
04.08.2020 01:00:00 12,9 11,0 8,9 4 2 9 5 SSE 1017,6 32 0 0,0
04.08.2020 00:00:00 13,7 11,6 9,5 5 3 10 5 SSE 1017,5 26 0 0,0
03.08.2020 23:00:00 14,8 12,5 9,6 4 2 9 5 SE 1017,2 26 0 0,0
03.08.2020 22:00:00 16,1 12,1 10,7 2 1 9 5 W 1016,8 11 0 0,0
03.08.2020 21:00:00 17,8 12,5 16,5 8 4 18 10 W 1016,2 47 39 0,0
03.08.2020 20:00:00 18,2 11,3 17,4 9 5 27 15 NW 1015,9 42 9 0,0
03.08.2020 19:00:00 19,6 10,8 20,0 18 10 37 20 NW 1015,9 15 34 0,0
03.08.2020 18:00:00 19,8 12,1 24,5 22 12 40 21 WNW 1015,5 17 60 0,0
03.08.2020 17:00:00 22,1 10,6 23,4 18 10 35 19 NW 1015,0 26 39 0,0
03.08.2020 16:00:00 21,4 9,6 22,4 22 12 43 23 NNW 1015,1 6 24 0,0
03.08.2020 15:00:00 20,9 10,7 21,8 30 16 44 24 NW 1015,2 14 50 0,0
03.08.2020 14:00:00 19,7 13,2 20,2 34 18 45 24 NW 1014,9 21 33 0,0
03.08.2020 13:00:00 19,0 13,0 19,3 22 12 34 18 N 1014,8 29 9 0,0
03.08.2020 12:00:00 20,1 13,8 21,0 14 8 24 13 N 1014,7 24 14 0,0
03.08.2020 11:00:00 18,2 14,3 21,1 16 9 22 12 NW 1014,8 23 15 0,0
03.08.2020 10:00:00 19,0 14,5 19,4 9 5 16 9 WNW 1014,7 37 21 0,0
03.08.2020 09:00:00 17,9 13,6 16,5 8 4 15 8 WNW 1014,7 39 26 0,0
03.08.2020 08:00:00 16,9 13,2 15,0 6 3 13 7 W 1014,6 45 36 0,0
03.08.2020 07:00:00 16,3 13,2 14,4 6 4 18 10 W 1014,6 52 0 0,0
03.08.2020 06:00:00 16,1 13,4 13,4 8 5 19 10 WSW 1014,7 59 0 0,0
03.08.2020 05:00:00 16,0 13,8 13,4 5 3 15 8 WSW 1014,9 59 0 0,0
03.08.2020 04:00:00 16,3 14,1 14,3 8 4 21 12 W 1015,2 42 0 0,0
03.08.2020 03:00:00 16,3 13,8 14,3 8 5 18 10 W 1015,8 40 0 0,0
03.08.2020 02:00:00 16,5 13,8 13,8 8 5 19 10 W 1016,2 34 0 0,0
03.08.2020 01:00:00 16,4 13,9 13,5 8 5 17 9 W 1016,4 36 0 0,0
03.08.2020 00:00:00 16,5 13,6 14,3 8 5 19 10 W 1016,8 36 0 0,0
02.08.2020 23:00:00 16,7 13,2 13,4 12 7 19 10 W 1017,1 39 0 0,0
02.08.2020 22:00:00 16,5 12,8 13,8 8 4 20 11 W 1017,4 39 2 0,0
02.08.2020 21:00:00 17,1 12,8 16,4 10 6 32 17 W 1017,3 41 51 0,0
02.08.2020 20:00:00 18,0 12,2 18,5 16 9 33 18 W 1017,3 28 54 0,0
02.08.2020 19:00:00 18,8 12,1 20,7 18 10 33 18 W 1017,3 11 60 0,0
02.08.2020 18:00:00 19,3 13,2 23,6 21 11 39 21 W 1017,6 11 60 0,0
02.08.2020 17:00:00 19,4 12,6 25,1 23 12 39 21 W 1017,9 9 57 0,0
02.08.2020 16:00:00 19,3 12,8 25,8 23 12 38 21 W 1018,2 10 58 0,0
02.08.2020 15:00:00 19,1 12,8 26,7 23 12 38 21 W 1018,4 11 56 0,0
02.08.2020 14:00:00 18,8 12,3 27,6 22 12 35 19 W 1018,5 13 56 0,0
02.08.2020 13:00:00 18,6 10,9 27,6 17 9 32 17 W 1018,8 15 60 0,0
02.08.2020 12:00:00 18,5 10,3 26,8 19 10 34 18 W 1018,6 19 60 0,0
02.08.2020 11:00:00 17,9 12,3 22,2 19 10 32 17 WNW 1018,4 24 57 0,0
02.08.2020 10:00:00 17,4 12,1 17,3 15 8 29 15 NW 1018,3 30 34 0,0
02.08.2020 09:00:00 16,2 11,4 16,9 15 8 29 16 WNW 1018,0 28 37 0,0
02.08.2020 08:00:00 16,7 11,6 14,1 16 9 29 16 WNW 1017,7 20 26 0,0
02.08.2020 07:00:00 16,0 11,6 13,9 16 9 29 16 WNW 1017,5 27 6 0,0
02.08.2020 06:00:00 16,4 11,3 14,4 15 8 32 17 WNW 1017,2 46 0 0,0
02.08.2020 05:00:00 17,1 12,0 15,4 18 10 33 18 WNW 1016,9 48 0 0,0
02.08.2020 04:00:00 17,6 14,3 15,3 15 8 28 15 WNW 1016,5 40 0 0,0
02.08.2020 03:00:00 17,1 15,4 15,2 10 5 26 14 W 1016,4 19 0 0,0
02.08.2020 02:00:00 16,9 15,1 15,0 13 7 25 14 W 1016,8 19 0 0,0
02.08.2020 01:00:00 17,1 15,1 15,0 13 7 24 13 W 1017,3 20 0 0,0
02.08.2020 00:00:00 17,1 14,7 15,5 10 5 22 12 W 1017,6 20 0 0,0
01.08.2020 23:00:00 17,4 15,2 14,7 13 7 26 14 W 1017,4 20 0 0,0
01.08.2020 22:00:00 17,5 15,3 14,9 8 4 17 9 W 1017,4 19 0 0,0
01.08.2020 21:00:00 18,0 15,6 17,1 9 5 25 14 W 1017,3 30 18 0,0
01.08.2020 20:00:00 19,1 15,4 19,5 16 8 32 18 WSW 1017,4 19 60 0,0
01.08.2020 19:00:00 19,9 15,9 21,4 16 9 33 18 WSW 1017,3 10 60 0,0
01.08.2020 18:00:00 20,0 15,8 22,7 20 11 39 21 W 1017,8 11 51 0,0
01.08.2020 17:00:00 20,0 15,6 24,1 19 10 34 18 W 1017,7 10 39 0,0
01.08.2020 16:00:00 19,7 15,6 25,0 16 9 44 24 W 1018,0 11 50 0,0
01.08.2020 15:00:00 20,6 15,6 25,3 20 11 35 19 W 1018,0 12 45 0,0
01.08.2020 14:00:00 19,5 15,6 23,9 20 11 35 19 WSW 1018,0 12 31 0,0
01.08.2020 13:00:00 19,1 16,0 24,8 16 9 35 19 W 1018,2 12 35 0,0
01.08.2020 12:00:00 19,5 16,3 26,9 18 10 30 16 W 1017,5 13 54 0,0
01.08.2020 11:00:00 19,7 16,0 23,3 19 10 32 18 W 1016,9 14 51 0,0
01.08.2020 10:00:00 19,7 16,3 20,5 16 9 31 17 W 1016,4 16 32 0,0
01.08.2020 09:00:00 18,3 17,1 17,8 16 9 24 13 W 1016,2 11 4 0,0
01.08.2020 08:00:00 17,7 16,4 17,3 13 7 26 14 W 1016,0 14 0 0,0
01.08.2020 07:00:00 17,7 16,0 17,0 10 5 24 13 W 1015,9 29 0 0,0
01.08.2020 06:00:00 17,5 16,4 17,0 11 6 23 12 WSW 1015,5 33 0 0,0
01.08.2020 05:00:00 17,9 17,3 17,9 12 6 30 16 WSW 1015,4 18 0 0,0
01.08.2020 04:00:00 17,9 17,4 17,6 13 7 24 13 WSW 1015,3 10 0 0,0
01.08.2020 03:00:00 17,6 17,1 17,5 9 5 27 15 WSW 1015,0 3,4 0 0,0
01.08.2020 02:00:00 17,6 17,0 17,6 11 6 31 17 W 1015,0 6 0 0,0
01.08.2020 01:00:00 17,7 16,9 17,8 15 8 27 15 WSW 1015,2 11 0 0,0
01.08.2020 00:00:00 18,5 16,7 17,3 11 6 25 14 WSW 1014,7 16 0 0,0
31.07.2020 23:00:00 18,4 16,2 17,3 13 7 26 14 SW 1014,3 15 0 0,0
31.07.2020 22:00:00 18,8 16,4 17,8 14 8 23 12 SW 1013,9 12 5 0,0
31.07.2020 21:00:00 20,1 15,9 19,8 13 7 24 13 W 1013,2 19 10 0,0
31.07.2020 20:00:00 21,7 15,1 23,0 11 6 27 14 W 1012,5 36 18 0,0
31.07.2020 19:00:00 23,2 15,8 24,8 16 9 43 23 W 1012,4 24 2 0,0
31.07.2020 18:00:00 27,0 15,7 25,5 27 14 73 39 WSW 1011,7 21 13 0,0
31.07.2020 17:00:00 38,5 15,0 37,9 18 10 34 19 SSE 1009,7 15 49 0,0
31.07.2020 16:00:00 37,5 14,7 38,8 17 9 39 21 SSE 1010,3 14 54 0,0
31.07.2020 15:00:00 36,3 13,7 42,1 18 10 35 19 SE 1010,6 10 60 0,0
31.07.2020 14:00:00 35,0 13,2 41,9 21 11 37 20 SE 1011,3 11 60 0,0
31.07.2020 13:00:00 32,8 13,9 39,1 22 12 31 17 ESE 1011,7 14 60 0,0
31.07.2020 12:00:00 30,6 13,8 33,4 21 11 27 15 ESE 1012,2 16 60 0,0
31.07.2020 11:00:00 27,7 13,2 27,8 16 8 23 13 ESE 1012,8 15 60 0,0
31.07.2020 10:00:00 24,7 12,9 21,6 19 10 28 15 ESE 1013,1 9 60 0,0
31.07.2020 09:00:00 21,8 12,6 16,7 13 7 18 10 SE 1013,4 9 60 0,0
31.07.2020 08:00:00 18,3 12,3 13,4 11 6 14 8 SSE 1013,8 8 60 0,0
31.07.2020 07:00:00 17,1 11,1 12,1 11 6 14 7 SSE 1013,8 7 10 0,0
31.07.2020 06:00:00 17,1 10,9 11,3 10 6 14 7 SSE 1014,3 42 0 0,0
31.07.2020 05:00:00 17,1 11,1 11,2 8 5 14 8 SSE 1014,6 41 0 0,0
31.07.2020 04:00:00 17,3 11,8 12,0 7 4 12 7 SSE 1015,4 45 0 0,0
31.07.2020 03:00:00 17,7 12,2 12,0 9 5 10 6 SE 1015,9 41 0 0,0
31.07.2020 02:00:00 18,1 13,0 13,3 8 4 13 7 SSE 1016,1 38 0 0,0
31.07.2020 01:00:00 18,4 13,5 14,3 10 6 14 8 SE 1016,1 20 0 0,0
31.07.2020 00:00:00 19,2 14,0 13,9 10 6 19 10 ESE 1016,4 29 0 0,0
30.07.2020 23:00:00 20,5 14,2 16,0 10 5 19 10 ESE 1016,2 33 0 0,0
30.07.2020 22:00:00 22,3 14,4 18,4 10 6 24 13 E 1016,0 39 6 0,0
30.07.2020 21:00:00 25,1 14,5 22,3 14 8 22 12 ENE 1015,8 25 60 0,0
30.07.2020 20:00:00 27,4 16,1 24,4 7 4 23 12 NE 1015,9 23 60 0,0
30.07.2020 19:00:00 24,8 13,0 25,1 21 11 30 16 NW 1016,3 13 60 0,0
30.07.2020 18:00:00 26,1 10,3 27,7 19 10 25 14 NW 1016,9 14 60 0,0
30.07.2020 17:00:00 26,3 9,2 29,9 20 11 25 13 NW 1017,7 17 60 0,0
30.07.2020 16:00:00 25,5 10,1 29,3 19 10 25 14 NW 1018,3 20 60 0,0
30.07.2020 15:00:00 25,8 14,0 30,1 16 9 22 12 NNW 1018,7 19 60 0,0
30.07.2020 14:00:00 25,1 13,6 30,7 11 6 21 12 NNW 1019,2 19 60 0,0
30.07.2020 13:00:00 23,9 13,7 31,0 10 5 18 10 NNW 1019,7 36 60 0,0
30.07.2020 12:00:00 24,1 12,1 31,9 8 4 16 8 SSW 1020,0 19 60 0,0
30.07.2020 11:00:00 22,3 12,5 27,4 5 3 10 5 SSE 1020,1 58 60 0,0
30.07.2020 10:00:00 19,6 11,4 19,1 6 3 10 5 ESE 1020,3 17 60 0,0
30.07.2020 09:00:00 16,4 12,4 13,3 5 3 9 5 SE 1020,3 12 60 0,0
30.07.2020 08:00:00 12,3 10,4 7,7 6 3 9 5 SE 1020,5 12 60 0,0
30.07.2020 07:00:00 9,8 8,6 6,5 3 2 8 4 SE 1020,6 12 11 0,0
30.07.2020 06:00:00 9,3 8,1 6,5 6 4 8 5 SSE 1020,4 20 0 0,0
30.07.2020 05:00:00 10,0 8,4 6,9 5 3 10 5 SSE 1020,3 53 0 0,0
30.07.2020 04:00:00 10,0 8,8 5,8 6 3 8 4 SSE 1020,6 47 0 0,0
30.07.2020 03:00:00 10,1 8,5 5,8 4 2 6 4 SSE 1020,7 46 0 0,0
30.07.2020 02:00:00 10,5 8,9 6,4 4 2 8 4 SSE 1020,9 34 0 0,0
30.07.2020 01:00:00 11,2 9,1 6,3 5 3 7 4 SSE 1020,9 38 0 0,0
30.07.2020 00:00:00 12,2 9,4 6,6 4 2 5 3 SSE 1021,0 49 0 0,0
29.07.2020 23:00:00 13,5 9,0 7,3 0 0 3 2 N 1021,0 58 0 0,0
29.07.2020 22:00:00 14,4 9,2 9,1 3 2 8 4 SW 1020,7 15 7 0,0
29.07.2020 21:00:00 16,8 8,2 13,5 5 3 12 7 WSW 1020,6 60 60 0,0
29.07.2020 20:00:00 18,7 7,8 18,1 8 4 16 8 WNW 1020,6 24 60 0,0
29.07.2020 19:00:00 18,9 7,9 21,1 11 6 21 11 WNW 1020,9 17 60 0,0
29.07.2020 18:00:00 19,2 7,9 23,6 11 6 22 12 WNW 1021,4 16 60 0,0

tt = Température de l'air
td = dewpoint
tt 5cm = Température de l'air 5cm
ff = Vitesse du vent
fx = gusts
dd = Direction du vent
ppp = reduced air pressure
vv = visibility
sd = Ensoleillement
rr = Quantités de précipitations

stations d'obs. à proximité